Regional Weather Roundup
Issued by NWS Charleston, WV

Home | Current Version | Previous Version | Graphics & Text | Print | Product List | Glossary Off
Versions: 1 2 3 4 5 6 7 8 9 10 11 12 13 14 15 16 17 18 19 20 21 22 23 24 25 26 27 28 29 30 31 32 33 34 35 36 37 38 39 40 41 42 43 44 45 46 47 48 49 50

000
ASUS41 KRLX 070510
RWRRLX
West Virginia Regional Weather Roundup
National Weather Service Charleston WV
100 AM EDT TUE JUL 07 2015

Note: "fair" indicates few or no clouds below 12,000 feet with no
significant weather and/or obstructions to visibility.

WVZ003-070600-
Northern Panhandle of West Virginia

CITY           SKY/WX    TMP DP  RH WIND       PRES   REMARKS
WHEELING       CLEAR     69  66  90 S6        30.04R
$$

WVZ009-070600-
Northwest West Virginia

CITY           SKY/WX    TMP DP  RH WIND       PRES   REMARKS
PARKERSBURG    PTCLDY    69  67  93 S5        30.07S
$$

WVZ006-070600-
Western West Virginia

CITY           SKY/WX    TMP DP  RH WIND       PRES   REMARKS
HUNTINGTON     CLEAR     70  69  97 S6        30.05S FOG
$$

WVZ015-070600-
West Central West Virginia

CITY           SKY/WX    TMP DP  RH WIND       PRES   REMARKS
CHARLESTON     PTCLDY    67  66  97 CALM      30.08R
$$

WVZ022-031-070600-
North Central West Virginia

CITY           SKY/WX    TMP DP  RH WIND       PRES   REMARKS
CLARKSBURG     CLOUDY    68  67  96 S3        30.08R
MORGANTOWN     MOCLDY    71  65  81 SW5       30.08R
$$

WVZ025-035-042-045-070600-
Southern West Virginia

CITY           SKY/WX    TMP DP  RH WIND       PRES   REMARKS
BECKLEY        CLEAR     65  61  87 S3        30.17R
LOGAN          FOG       66  66 100 CALM      30.09S VSB<1/4
BLUEFIELD      CLEAR     66  60  81 SW5       30.20R
LEWISBURG      CLEAR     65  63  92 CALM      30.17R FOG
$$

WVZ047-070600-
Northern Mountains of West Virginia

CITY           SKY/WX    TMP DP  RH WIND       PRES   REMARKS
ELKINS         MOCLDY    66  64  93 CALM      30.12S FOG
$$

WVZ052-070600-
Eastern Panhandle of West Virginia

CITY           SKY/WX    TMP DP  RH WIND       PRES   REMARKS
MARTINSBURG    CLEAR     70  68  93 CALM      30.03S
PETERSBURG     FOG       66  64  93 CALM      30.06S VSB 1/4
$$



USA.gov is the U.S. government's official web portal to all federal, state and local government web resources and services.